User: anonymous   Login
Location: Fremont
(37.5480°N, 121.9880°W)
Time: 02:16:49
(UTC-08:00)
Language:

Cosmos 1766 - Orbit

View from above orbital plane
View from above orbital plane
View from above satellite
View from above satellite

Ground track
Ground track

The orbit data is extracted from the following two-line orbital elements,

1 16881U 86055A   16337.88652488  .00001204  00000-0  72392-4 0  9991
2 16881  82.5034 215.6509 0016918  63.0223 297.2732 15.09831634651810
Epoch (UTC): 02 December 2016 21:16:35
Eccentricity: 0.0016918
inclination: 82.5034°
perigee height: 525 km
apogee height: 548 km
right ascension of ascending node: 215.6509°
argument of perigee: 63.0223°
revolutions per day: 15.09831634
mean anomaly at epoch: 297.2732°
orbit number at epoch: 65181

The dashed part of the orbit path shows where the satellite is in the earth's shadow,  

DLR